Regional Weather Roundup
Issued by NWS Portland, ME

Home | Current Version | Previous Version | Text Only | Print | Product List | Glossary On
Versions: 1 2 3 4 5 6 7 8 9 10 11 12 13 14 15 16 17 18 19 20 21 22 23 24 25 26 27 28 29 30 31 32 33 34 35 36 37 38 39 40 41 42 43 44 45 46 47 48 49 50
000
ASUS41 KGYX 250110
RWRGYX
WEATHER ROUNDUP FOR MAINE AND NEW HAMPSHIRE
NATIONAL WEATHER SERVICE GRAY ME
900 PM EDT WED AUG 24 2016

MEZ002-005-006-010-012-015-018-020-021-024-026-027-029-250200-
MAINE

CITY           SKY/WX    TMP DP  RH WIND       PRES   REMARKS
PORTLAND       CLOUDY    72  60  66 S6        30.13S
SANFORD        CLOUDY    69  62  78 CALM      30.14S
BAR HARBOR     CLOUDY    64  61  90 S6        30.14S
WISCASSET      CLOUDY    67  60  78 CALM      30.15S
ROCKLAND       CLOUDY    66  62  87 CALM      30.14S
FRYEBURG       CLEAR     69  62  78 SW5       30.13S
LEWISTONAUBURN PTCLDY    69  63  81 SE5       30.13R
AUGUSTA        CLOUDY    70  60  70 S7        30.13S
WATERVILLE     CLEAR     69  61  75 SW5       30.10S
BANGOR         PTCLDY    71  59  65 S9        30.12R
GREENVILLE       N/A     67  56  67 CALM      30.11S
MILLINOCKET    CLEAR     70  64  81 CALM      30.09R
HOULTON        CLEAR     72  64  76 S6        30.04F
PRESQUE ISLE   CLEAR     70  64  81 S3        30.03F
FRENCHVILLE    CLOUDY    71  62  73 S7        30.01F
CARIBOU        CLEAR     70  63  78 SE6       30.02S
$$

NHZ002-005-008-009-011-012-014-250200-
NEW HAMPSHIRE

CITY           SKY/WX    TMP DP  RH WIND       PRES   REMARKS
PORTSMOUTH     MOCLDY    73  62  68 S5        30.13R
ROCHESTER      CLOUDY    72  62  71 CALM      30.14R
NASHUA         CLEAR     76  63  64 CALM      30.16R
MANCHESTER     MOCLDY    78  60  53 S5        30.14R
CONCORD        CLEAR     73  63  70 S3        30.14S
LACONIA        CLEAR     76  63  64 S6        30.15S
PLYMOUTH       FAIR      66  64  94 CALM      30.14S
BERLIN         CLEAR     64  60  87 CALM      30.14F
WHITEFIELD     CLEAR     65  61  87 CALM      30.15S
JAFFREY        CLEAR     68  62  81 S3        30.19S
KEENE          CLEAR     68  65  90 CALM      30.16S
LEBANON        CLEAR     67  63  87 CALM      30.13R
MT WASHINGTON  PTCLDY    55  45  67 SW15        N/A
$$

VTZ005-007-008-250200-
VERMONT

CITY           SKY/WX    TMP DP  RH WIND       PRES   REMARKS
ST JOHNSBURY     N/A     69  62  78 MISG      30.10S
MONTPELIER     CLEAR     70  57  63 S8        30.17S
BURLINGTON     CLEAR     77  59  53 S12       30.07R
$$

MAZ007-012-024-CTZ003-RIZ002-NYZ038-NYZ072-250200-
SOUTHERN NEW ENGLAND AND NY

CITY           SKY/WX    TMP DP  RH WIND       PRES   REMARKS
BOSTON         CLOUDY    79  61  53 SW12      30.16R
WORCESTER      CLEAR     71  59  65 SW10      30.20S
NANTUCKET      CLEAR     70  67  90 SW7       30.21S
PROVIDENCE     CLOUDY    72  61  68 SW7       30.19S
HARTFORD       CLEAR     75  60  59 S8        30.17R
ALBANY         PTCLDY    78  61  55 S8        30.12R
NEW YORK CITY  PTCLDY    78  64  61 S13       30.17R
$$

ANZ081-ANZ082-ANZ150-NHZ014-MEZ023>029-250200-
COASTAL MARINE OBSERVATIONS

STATION/POSITION TIME  TEMP    WIND        PRES    WAVE
                       AIR SEA DIR/SP/G            HT/PER
                 (UTC) (F)     (DEG/KT/KT) (MB)    (FT/S)
MOUNT DESERT ROC 0100   64     200/ 14/ 15 1021.0R
MATINICUS ROCK   0100   66     200/ 16/ 16 1020.4R
ISLE OF SHOALS   0100   72     210/ 14/ 14 1020.4R
JEFFREYS LEDGE   0008      67                N/A     2/11
CASHES LEDGE BUO 0050   72 69  200/ 12/ 12 1021.1R   2/12
GEORGES BANK BUO 0050   68 68              1023.8R   2/10
$$

.............KEY..............
   WCI - WIND CHILL
   TC  - TEMPERATURE IN CELSIUS
   VSB - VISIBILITY IN MILES
   HX  - HEAT INDEX
   FAIR- INDICATES FEW OR NO CLOUDS BELOW 12,000 FT, WITH NO
         SIGNIFICANT WEATHER AND/OR OBSTRUCTIONS TO VISIBILITY.






USA.gov is the U.S. government's official web portal to all federal, state and local government web resources and services.